(163182) = 2002 CZ278

Discovered at Kitt Peak on 2002-02-07 by Spacewatch.

Orbit

Orbit type: Main Belt

Note: WebGL enabled browser required.

epoch2024-03-31.0
epoch JD2460400.5
perihelion date2022-02-07.56204
perihelion JD2459618.06204
argument of perihelion (°)285.02489
ascending node (°)318.54047
inclination (°)9.83475
eccentricity0.1370157
perihelion distance (AU)2.1076167
Tisserand w.r.t. Jupiter3.5
ΔV w.r.t. Earth (km/sec)9.6
semimajor axis (AU)2.4422424
mean anomaly (°)202.05547
mean daily motion (°/day)0.25823830
aphelion distance (AU)2.777
period (years)3.82
P-vector [x]-0.43577953
P-vector [y]-0.74617328
P-vector [z]-0.50331068
Q-vector [x]0.89292042
Q-vector [y]-0.42867456
Q-vector [z]-0.13759084
absolute magnitude16.49
phase slope0.15
uncertainty0
referenceMPEC 2024-E02
observations used404
oppositions15
arc length (days)8031
first opposition used2002
last opposition used2024
residual rms (arc-secs)0.71
perturbers coarse indicatorM-v
perturbers precise indicator003Ek
first observation date used2002-01-07.0
last observation date used2024-01-03.0
computer nameMPCLINUX
JD of orbit computation2456819.529424
perihelion JD uncertainty (days)9.4477E-05
argument of perihelion uncertainty (°)4.1214E-05
ascending node uncertainty (°)3.0466E-05
inclination uncertainty (°)5.7713E-06
eccentricity uncertainty 4.4762E-08
perihelion distance uncertainty (AU)1.0699E-07
Minimum Orbit Intersection Distances (in AU)
for orbit epoch: 2460400.5, reference: E2024-E02
Mercury1.64689
Venus1.39864
Earth1.1197
Mars0.63804
Jupiter2.33672
Saturn6.34467
Uranus16.0156
Neptune27.1357

Observations

411 total observations over interval: 2002 01 07.42162 – 2024 01 03.240114
These data are available for download (format description).

Date (UT) J2000 RA J2000 Dec Magn Location Ref
2002 01 07.42162 10 06 06.55 +13 10 02.2 21.0 V 691 – Steward Observatory, Kitt Peak-Spacewatch MPS 61202
2002 01 07.44286 10 06 05.99 +13 10 00.3 21.0 V 691 – Steward Observatory, Kitt Peak-Spacewatch MPS 61202
2002 01 07.46398 10 06 05.45 +13 09 59.1 20.9 V 691 – Steward Observatory, Kitt Peak-Spacewatch MPS 61202
2002 02 07.31651 09 41 02.25 +13 13 46.3 19.7 V 291 – LPL/Spacewatch II MPS 54784
2002 02 07.33701 09 41 00.85 +13 13 47.5 19.6 V 291 – LPL/Spacewatch II MPS 54784
2002 02 07.35863 09 40 59.38 +13 13 48.7 19.4 V 291 – LPL/Spacewatch II MPS 54784
2002 02 11.24441 09 36 40.01 +13 17 31.9 18.6   704 – Lincoln Laboratory ETS, New Mexico MPS 54784
2002 02 11.25853 09 36 39.05 +13 17 32.8 19.1   704 – Lincoln Laboratory ETS, New Mexico MPS 54784
2002 02 11.27266 09 36 38.06 +13 17 33.7 19.1   704 – Lincoln Laboratory ETS, New Mexico MPS 54784
2002 02 11.28678 09 36 37.06 +13 17 34.3 18.8   704 – Lincoln Laboratory ETS, New Mexico MPS 54784
2002 02 11.30090 09 36 36.09 +13 17 35.5 19.1   704 – Lincoln Laboratory ETS, New Mexico MPS 54784
2002 02 13.20513 09 34 28.08 +13 19 25.4 19.6 V 333 – Desert Eagle Observatory MPS 54784
2002 02 13.25097 09 34 24.88 +13 19 27.7 19.4 V 333 – Desert Eagle Observatory MPS 54784
2002 02 20.23657 09 26 40.20 +13 25 21.2 19.7   704 – Lincoln Laboratory ETS, New Mexico MPS 54784
2002 02 20.25033 09 26 39.26 +13 25 22.6 19.6   704 – Lincoln Laboratory ETS, New Mexico MPS 54784
2002 02 20.26406 09 26 38.29 +13 25 23.6 19.6   704 – Lincoln Laboratory ETS, New Mexico MPS 54784
2002 02 20.27794 09 26 37.41 +13 25 23.3 19.7   704 – Lincoln Laboratory ETS, New Mexico MPS 54784
2002 02 20.29174 09 26 36.42 +13 25 24.5 19.5   704 – Lincoln Laboratory ETS, New Mexico MPS 54784
2003 07 08.33742 21 23 21.30 -20 08 59.5 19.7   644 – Palomar Mountain/NEAT MPS 82674
2003 07 08.35828 21 23 20.38 -20 08 58.7 19.2   644 – Palomar Mountain/NEAT MPS 82674
2003 07 08.37990 21 23 19.45 -20 08 57.5 19.2   644 – Palomar Mountain/NEAT MPS 82674
2003 08 05.33154 20 55 49.92 -19 46 11.4 20.0 V 691 – Steward Observatory, Kitt Peak-Spacewatch MPS 82674
2003 08 05.36219 20 55 47.79 -19 46 09.3 20.1 V 691 – Steward Observatory, Kitt Peak-Spacewatch MPS 82674
2003 08 05.39450 20 55 45.56 -19 46 06.7 20.1 V 691 – Steward Observatory, Kitt Peak-Spacewatch MPS 82674
2005 12 02.42600 11 03 34.29 +05 35 34.2 20.8 R 695 – Kitt Peak MPS 159870
2005 12 02.47946 11 03 37.41 +05 35 04.5   695 – Kitt Peak MPS 159870
2006 01 08.49594 11 27 53.56 +00 33 46.8 20.5 V G96 – Mt. Lemmon Survey MPS 158898
2006 01 08.50302 11 27 53.64 +00 33 44.1 21.0 V G96 – Mt. Lemmon Survey MPS 158898
2006 01 08.51008 11 27 53.74 +00 33 40.8 20.9 V G96 – Mt. Lemmon Survey MPS 158898
2006 01 08.51718 11 27 53.85 +00 33 38.2 21.1 V G96 – Mt. Lemmon Survey MPS 158898
2006 02 02.45060 11 25 25.79 -01 32 42.6 20.2 V 691 – Steward Observatory, Kitt Peak-Spacewatch MPS 161719
2006 02 02.46801 11 25 25.29 -01 32 46.2 20.3 V 691 – Steward Observatory, Kitt Peak-Spacewatch MPS 161719
2006 02 02.48534 11 25 24.75 -01 32 49.7 20.5 V 691 – Steward Observatory, Kitt Peak-Spacewatch MPS 161719
2006 02 22.32407 11 10 49.61 -02 06 30.6 19.2 R 699 – Lowell Observatory-LONEOS MPS 163725
2006 02 22.34417 11 10 48.35 -02 06 30.6   699 – Lowell Observatory-LONEOS MPS 163725
2006 02 22.36428 11 10 47.20 -02 06 30.4   699 – Lowell Observatory-LONEOS MPS 163725
2006 02 22.38436 11 10 45.94 -02 06 31.0   699 – Lowell Observatory-LONEOS MPS 163725
2006 03 03.23915 11 01 43.27 -02 01 52.6 18.4   704 – Lincoln Laboratory ETS, New Mexico MPS 166005
2006 03 03.25190 11 01 42.46 -02 01 51.0 18.9   704 – Lincoln Laboratory ETS, New Mexico MPS 166005
2006 03 03.26477 11 01 41.59 -02 01 50.4 19.4   704 – Lincoln Laboratory ETS, New Mexico MPS 166005
2006 03 03.27705 11 01 40.72 -02 01 50.6 18.9   704 – Lincoln Laboratory ETS, New Mexico MPS 166005
2006 03 03.28945 11 01 39.95 -02 01 48.8 18.8   704 – Lincoln Laboratory ETS, New Mexico MPS 166005
2007 08 10.28841 22 46 42.65 -03 53 21.8 19.6 V 691 – Steward Observatory, Kitt Peak-Spacewatch MPS 212491
2007 08 10.30944 22 46 41.50 -03 53 21.0 19.7 V 691 – Steward Observatory, Kitt Peak-Spacewatch MPS 212491
2007 08 10.32704 22 46 40.57 -03 53 21.2 19.8 V 691 – Steward Observatory, Kitt Peak-Spacewatch MPS 212491
2007 08 22.27155 22 35 12.74 -03 59 17.2 19.6   704 – Lincoln Laboratory ETS, New Mexico MPS 214382
2007 08 22.28413 22 35 11.93 -03 59 18.7 19.3   704 – Lincoln Laboratory ETS, New Mexico MPS 214382
2007 08 22.29671 22 35 11.20 -03 59 18.7 19.8   704 – Lincoln Laboratory ETS, New Mexico MPS 214382
2007 08 22.30925 22 35 10.31 -03 59 19.6 19.4   704 – Lincoln Laboratory ETS, New Mexico MPS 214382
2007 09 06.19502 22 19 52.64 -04 22 39.1 18.9 R 699 – Lowell Observatory-LONEOS MPS 214382
2007 09 06.21786 22 19 51.10 -04 22 42.1   699 – Lowell Observatory-LONEOS MPS 214382
2007 09 06.24070 22 19 49.68 -04 22 43.0   699 – Lowell Observatory-LONEOS MPS 214382
2007 09 06.26352 22 19 48.37 -04 22 45.4   699 – Lowell Observatory-LONEOS MPS 214382
2007 09 10.21398 22 16 01.34 -04 30 08.7 19.9 V 703 – Catalina Sky Survey MPS 215023
2007 09 10.22259 22 16 00.84 -04 30 09.1 20.0 V 703 – Catalina Sky Survey MPS 215023
2007 09 10.23117 22 16 00.33 -04 30 10.0 20.2 V 703 – Catalina Sky Survey MPS 215023
2007 09 10.23974 22 15 59.79 -04 30 12.4 19.3 V 703 – Catalina Sky Survey MPS 215023
2007 09 14.19709 22 12 27.64 -04 37 28.0 19.6 C 704 – Lincoln Laboratory ETS, New Mexico MPS 291358
2007 09 14.20917 22 12 26.99 -04 37 29.7 19.8 C 704 – Lincoln Laboratory ETS, New Mexico MPS 291358
2007 09 14.23331 22 12 25.71 -04 37 32.8 19.3 C 704 – Lincoln Laboratory ETS, New Mexico MPS 291358
2007 09 17.19230 22 09 59.26 -04 42 41.6 20.1   704 – Lincoln Laboratory ETS, New Mexico MPS 216050
2007 09 17.20452 22 09 58.76 -04 42 42.7 20.1   704 – Lincoln Laboratory ETS, New Mexico MPS 216050
2007 09 17.21700 22 09 58.11 -04 42 45.5 20.2   704 – Lincoln Laboratory ETS, New Mexico MPS 216050
2007 09 17.22920 22 09 57.48 -04 42 44.5 19.6   704 – Lincoln Laboratory ETS, New Mexico MPS 216050
2010 01 08.875591 12 45 03.98 -11 02 15.7   C51 – WISE MPS 330520
2010 01 09.008023 12 45 11.32 -11 03 44.3   C51 – WISE MPS 330520
2010 01 09.140328 12 45 18.76 -11 05 13.2   C51 – WISE MPS 330520
2010 01 09.206544 12 45 22.24 -11 05 59.1   C51 – WISE MPS 330520
2010 01 09.272633 12 45 25.87 -11 06 43.3   C51 – WISE MPS 330520
2010 01 09.471153 12 45 36.81 -11 08 54.7   C51 – WISE MPS 330520
2010 04 06.27617 12 32 44.08 -20 00 08.2 18.8 V 703 – Catalina Sky Survey MPS 321953
2010 04 06.28194 12 32 43.83 -20 00 07.0 19.0 V 703 – Catalina Sky Survey MPS 321953
2010 04 06.28775 12 32 43.36 -20 00 06.7 19.2 V 703 – Catalina Sky Survey MPS 321953
2010 04 06.29355 12 32 42.93 -20 00 05.0 18.6 V 703 – Catalina Sky Survey MPS 321953
2010 04 20.55326 12 19 02.06 -19 06 57.3 18.6 V E12 – Siding Spring Survey MPS 324641
2010 04 20.56973 12 19 01.20 -19 06 52.0 19.2 V E12 – Siding Spring Survey MPS 324641
2010 07 02.960282 12 40 42.991 -17 12 37.80   C51 – WISE MPS 903216
2010 07 03.092587 12 40 52.96 -17 13 04.9   C51 – WISE MPS 346004
2010 07 03.224890 12 41 02.88 -17 13 33.7   C51 – WISE MPS 346004
2010 07 03.357193 12 41 12.82 -17 13 59.9   C51 – WISE MPS 346004
2010 07 03.423409 12 41 17.81 -17 14 16.0   C51 – WISE MPS 346004
2010 07 03.489498 12 41 22.84 -17 14 29.2   C51 – WISE MPS 346004
2010 07 03.555713 12 41 27.84 -17 14 42.9   C51 – WISE MPS 346004
2010 07 03.621801 12 41 32.89 -17 14 57.6   C51 – WISE MPS 346004
2010 07 03.687889 12 41 37.89 -17 15 11.8   C51 – WISE MPS 346004
2010 07 03.688016 12 41 37.92 -17 15 10.3   C51 – WISE MPS 346004
2010 07 03.75411 12 41 42.82 -17 15 24.4   C51 – WISE MPS 346004
2010 07 04.08480 12 42 08.04 -17 16 36.7   C51 – WISE MPS 346004
2010 07 04.21710 12 42 18.12 -17 17 05.7   C51 – WISE MPS 346004
2010 07 04.48171 12 42 38.37 -17 18 03.1   C51 – WISE MPS 346004
2011 06 09.58714 23 47 16.011 +01 16 50.51 21.5 w F51 – Pan-STARRS 1, Haleakala MPS 385219
2011 06 09.59267 23 47 16.331 +01 16 53.99 21.5 w F51 – Pan-STARRS 1, Haleakala MPS 385219
2011 06 09.59819 23 47 16.632 +01 16 57.45 21.3 w F51 – Pan-STARRS 1, Haleakala MPS 385219
